Wind_Speed
9 9 9 9 9 9 9 9 9 9 8 8 8 8 8 8 8 8 8 7 6 6 6 6 6 6 5 5 6 6 6 6 6 5 5 5 6 6 6 6 6 6 6 6
10 10 10 10 10 10 10 10 9 9 9 9 9 9 8 8 8 7 7 7 7 7 7 6 6 6 6 6 6 6 6 6 6 5 6 6 6 6 7 7 7 7 7 8
11 11 11 11 11 11 11 11 10 10 10 10 9 8 8 8 8 8 7 7 6 7 6 6 6 7 6 6 6 6 6 6 6 6 6 6 7 7 7 7 8 8 8 9
12 12 12 12 12 12 12 12 11 10 11 10 10 8 8 8 8 8 7 7 7 6 6 6 7 7 7 7 6 6 7 7 7 7 7 7 7 7 7 8 8 9 9 9
13 13 13 13 13 13 13 12 12 11 11 11 10 9 7 8 8 8 8 7 7 7 7 7 7 7 7 7 7 8 8 8 8 8 8 8 8 8 9 9 10 9 10 10
13 14 14 13 13 13 13 13 13 12 12 12 11 10 9 9 9 8 8 8 8 8 8 8 8 8 8 8 8 8 8 8 8 8 9 9 9 9 10 10 10 10 11 11
13 14 13 14 14 14 14 14 14 13 12 12 11 11 10 10 10 9 9 9 9 9 9 8 8 8 8 8 8 8 9 9 9 9 9 10 10 10 10 11 11 11 12 12
13 12 13 13 13 13 14 14 13 13 13 12 12 11 10 10 10 10 10 10 10 10 9 9 8 9 9 8 8 9 9 10 10 10 10 10 11 11 11 12 12 12 13 13
14 13 13 13 13 13 14 14 14 14 14 13 12 11 10 11 10 11 11 11 11 11 10 10 10 10 10 10 9 10 10 10 11 11 11 11 12 12 12 12 13 13 13 14
15 15 14 14 14 14 14 14 14 14 14 13 12 11 11 11 11 12 12 12 11 11 11 10 11 11 11 11 11 11 11 12 12 12 12 12 12 13 13 13 13 14 14 14
16 15 14 15 15 14 15 15 15 14 14 14 13 12 12 12 12 13 12 13 12 11 11 11 12 12 12 12 12 13 13 13 13 13 13 13 13 13 13 13 14 14 14 14
16 16 15 16 16 16 17 17 17 16 16 16 15 13 13 13 14 14 14 15 14 13 12 12 13 13 13 13 13 13 13 14 14 15 15 15 15 15 15 15 15 15 15 15
17 18 17 17 17 17 17 17 18 18 18 18 17 15 14 15 15 15 15 15 15 15 14 13 13 13 13 13 13 14 14 15 16 16 16 16 16 16 16 16 16 16 17 17
19 19 18 18 18 18 18 18 19 19 18 19 18 16 16 16 16 16 16 16 16 16 16 15 14 14 14 14 15 15 16 16 17 17 17 17 17 17 17 17 17 17 17 17
21 21 20 20 20 20 20 20 20 20 20 19 18 17 16 17 17 17 16 16 16 16 16 15 16 16 16 16 16 16 16 17 17 17 17 17 17 17 17 18 18 18 18 18
22 22 22 22 22 22 21 20 20 20 20 20 19 18 18 18 18 17 16 16 16 16 16 17 17 17 17 17 17 18 18 18 18 17 17 17 17 17 17 18 18 18 18 18
24 24 24 23 23 23 23 21 21 22 22 21 20 18 19 19 19 18 18 17 17 18 18 19 19 19 19 19 19 19 19 19 18 18 18 18 18 18 19 19 19 19 19 19
26 25 25 25 24 25 23 22 22 22 23 22 21 20 20 20 20 20 20 20 20 20 20 20 21 21 21 21 21 21 21 21 20 20 20 19 19 20 20 20 20 20 20 19
28 27 27 27 26 26 23 23 23 23 23 22 22 22 22 22 22 22 22 22 23 22 22 22 23 23 22 22 22 22 22 22 21 21 21 21 21 20 21 21 21 21 20 20
28 29 29 28 28 27 24 23 23 23 23 23 23 23 23 23 24 23 24 24 24 24 24 24 24 24 24 24 24 24 23 22 22 22 22 22 21 21 21 21 21 21 21 21
28 29 29 30 29 28 26 24 24 24 23 23 23 23 24 25 25 24 25 25 25 25 25 26 26 25 25 25 25 25 24 24 23 23 23 23 23 22 22 22 21 22 22 22
28 28 29 29 30 28 26 26 26 25 25 24 24 24 25 25 25 25 25 25 25 25 26 27 27 27 26 26 26 25 25 25 25 25 25 24 24 24 23 23 23 23 23 23
29 29 28 29 29 29 28 27 27 27 27 26 26 26 25 25 25 26 26 26 27 27 27 28 28 28 28 28 27 27 26 27 26 26 26 26 26 26 25 25 25 25 25 25
31 31 30 30 30 30 30 29 29 29 29 29 29 28 28 27 27 28 28 28 28 28 28 28 29 29 29 29 30 30 29 29 29 28 27 27 28 27 27 27 27 27 27 27
31 31 32 32 31 32 32 32 32 32 31 31 30 30 31 30 30 29 29 29 29 30 30 30 30 30 30 31 31 32 31 31 31 31 30 30 29 29 29 29 29 29 29 29
30 32 33 33 32 32 32 32 33 33 34 34 33 32 33 33 32 33 32 32 32 32 32 32 32 31 31 31 31 32 32 32 32 32 32 32 32 32 32 31 31 31 31 31
Wind_Direction
279 282 287 290 290 290 291 290 290 292 291 292 293 292 290 291 291 291 292 290 287 284 285 287 287 286 288 293 292 293 295 296 300 297 293 294 292 288 283 280 278 282 280 276
275 277 280 282 284 285 286 288 288 289 289 289 290 289 288 287 286 286 290 292 290 287 285 285 287 288 289 292 293 293 293 293 295 294 294 295 296 293 289 284 278 278 276 277
275 277 277 280 281 283 285 288 287 285 284 286 287 286 284 282 283 283 287 290 288 287 286 288 291 292 291 291 291 289 291 293 294 294 292 291 293 295 294 289 284 283 281 280
274 276 278 279 280 281 281 282 282 280 281 284 288 286 283 282 282 281 284 287 285 283 287 291 292 291 293 293 289 291 292 291 293 291 290 291 293 294 293 289 288 286 285 284
273 275 277 279 278 278 278 278 280 279 278 280 283 286 282 279 280 282 283 281 281 282 284 288 288 287 289 288 289 292 291 290 292 292 289 288 291 290 290 290 288 287 285 283
271 273 275 277 277 277 276 275 275 275 274 275 280 280 276 275 279 277 278 277 279 281 282 283 283 284 287 289 288 288 289 292 294 293 290 290 289 288 288 289 288 284 282 282
272 272 274 275 277 277 274 275 274 273 271 274 277 274 274 277 276 273 274 278 281 280 278 279 280 284 286 287 285 285 287 289 291 293 294 292 289 288 288 288 289 287 283 282
272 272 270 272 273 274 274 274 275 277 274 273 275 276 276 275 274 273 274 276 278 278 278 276 279 286 290 292 289 289 288 288 288 290 293 292 288 286 287 287 288 288 287 284
272 272 268 268 271 269 268 269 276 278 278 273 273 276 277 276 273 272 273 273 272 272 274 277 281 288 293 294 291 291 290 289 288 288 289 289 287 285 285 286 286 287 286 284
272 270 266 265 268 269 271 271 271 274 277 274 272 276 278 276 274 277 275 270 269 271 274 278 283 285 287 289 288 289 289 288 288 288 288 287 286 286 286 286 288 289 288 284
270 268 265 264 267 270 268 266 267 271 275 276 278 277 277 277 277 277 274 271 272 273 273 277 279 281 285 286 286 287 287 286 287 287 287 286 285 285 286 287 289 289 289 286
267 267 265 265 266 266 267 267 266 270 274 277 279 280 279 277 276 276 276 276 273 272 273 276 279 281 284 285 285 285 284 284 284 285 285 284 284 285 285 285 285 284 284 283
267 267 265 263 264 266 265 265 264 268 270 273 279 282 279 275 275 277 279 279 273 272 274 278 280 282 285 287 287 286 285 285 285 285 284 284 284 283 284 284 285 284 282 282
264 264 264 265 265 266 265 263 263 266 269 272 275 276 272 273 274 276 276 275 273 272 273 276 279 282 284 287 289 288 287 287 286 285 284 284 283 282 283 283 283 283 281 281
263 263 263 262 261 263 264 264 264 267 270 272 273 272 271 271 272 273 271 271 272 273 275 276 278 281 283 285 287 288 288 287 286 285 284 284 284 283 283 283 282 282 283 284
262 264 263 262 262 263 264 265 264 265 268 271 273 273 272 271 271 268 267 268 269 271 273 276 279 282 283 284 284 285 286 286 285 284 283 283 283 284 284 283 281 281 283 284
260 263 262 262 263 265 264 267 267 266 267 270 272 271 270 271 271 270 266 266 268 271 274 276 277 280 282 283 284 284 284 284 284 284 283 282 282 282 283 283 282 282 281 281
261 261 260 261 263 264 268 267 266 267 267 269 270 269 269 270 270 269 268 269 270 272 275 275 277 278 280 281 283 285 286 285 284 283 282 281 281 282 282 283 284 282 281 280
260 260 260 260 263 265 267 267 266 266 267 267 268 269 267 268 269 270 270 271 271 272 273 275 276 278 279 279 281 284 285 284 284 283 281 280 281 282 282 282 282 281 279 278
258 259 260 260 262 264 267 266 266 265 264 265 268 270 269 270 270 271 271 270 270 271 271 274 275 277 278 279 280 282 282 281 281 281 281 281 281 281 281 281 280 279 278 277
257 259 260 261 261 264 267 266 266 263 265 267 268 269 269 270 271 271 271 271 271 271 271 273 275 276 278 278 279 279 279 278 278 278 278 279 280 280 280 279 279 278 277 276
257 260 261 262 262 263 265 266 266 267 267 269 270 270 270 270 271 272 272 271 272 272 272 273 275 275 277 278 278 278 278 278 277 277 278 278 279 279 279 279 278 277 276 276
257 259 262 263 263 265 264 264 265 265 266 267 268 269 270 271 271 271 273 273 273 272 273 273 273 274 275 276 277 278 277 277 277 277 277 278 278 278 278 277 277 277 276 276
258 260 261 263 264 265 264 263 264 265 266 267 268 268 269 270 271 271 272 273 272 273 273 274 273 273 274 274 276 277 276 276 276 277 277 277 278 278 278 277 277 277 277 276
259 261 262 262 263 264 265 264 265 265 266 267 267 269 270 271 272 273 273 274 273 273 274 275 275 274 274 275 276 277 277 277 276 276 277 277 277 277 277 277 277 277 278 278
259 261 262 263 264 265 265 266 266 266 266 267 267 268 270 270 271 272 273 273 273 272 274 275 276 277 277 277 278 279 280 279 279 277 277 277 277 277 276 277 277 277 277 277
Height
5854 5854 5854 5853 5853 5852 5851 5851 5851 5850 5849 5849 5848 5848 5847 5846 5845 5845 5844 5844 5843 5842 5841 5841 5840 5840 5839 5839 5839 5838 5838 5837 5837 5836 5836 5835 5835 5834 5834 5834 5834 5833 5833 5833
5852 5852 5852 5851 5850 5850 5850 5849 5849 5849 5847 5847 5847 5846 5846 5845 5844 5843 5843 5842 5841 5841 5840 5839 5839 5838 5838 5837 5837 5836 5836 5836 5835 5835 5834 5834 5834 5833 5833 5832 5832 5832 5831 5831
5849 5850 5849 5848 5848 5847 5847 5847 5847 5846 5845 5845 5845 5845 5844 5843 5842 5842 5841 5840 5840 5839 5838 5838 5837 5837 5836 5836 5835 5835 5834 5834 5834 5833 5833 5832 5832 5831 5831 5831 5830 5830 5829 5829
5846 5846 5846 5846 5845 5845 5844 5844 5844 5844 5843 5843 5843 5843 5843 5842 5841 5840 5840 5839 5838 5838 5837 5836 5836 5835 5835 5834 5834 5833 5833 5832 5832 5831 5831 5830 5830 5829 5829 5828 5828 5827 5827 5826
5843 5843 5843 5842 5842 5842 5842 5841 5841 5841 5841 5841 5840 5841 5842 5840 5839 5839 5838 5837 5836 5836 5835 5835 5834 5834 5833 5832 5832 5831 5831 5830 5830 5829 5829 5828 5828 5827 5827 5826 5825 5825 5824 5824
5840 5839 5839 5839 5839 5839 5838 5839 5838 5838 5838 5838 5838 5838 5839 5838 5837 5837 5836 5835 5835 5834 5833 5833 5832 5832 5831 5831 5830 5829 5829 5828 5827 5827 5826 5826 5825 5824 5824 5823 5823 5822 5821 5821
5836 5836 5835 5835 5835 5835 5835 5836 5835 5835 5835 5835 5835 5835 5836 5835 5834 5834 5834 5833 5832 5832 5831 5831 5830 5830 5829 5828 5828 5827 5826 5826 5825 5824 5824 5823 5822 5822 5821 5821 5820 5819 5818 5818
5832 5833 5832 5832 5832 5832 5832 5833 5833 5833 5832 5832 5832 5832 5833 5832 5831 5831 5831 5831 5830 5829 5829 5829 5828 5827 5827 5826 5825 5824 5824 5823 5823 5822 5821 5820 5820 5819 5818 5817 5816 5816 5815 5814
5829 5829 5829 5828 5828 5829 5829 5829 5830 5830 5829 5829 5829 5830 5830 5829 5829 5828 5828 5828 5827 5827 5827 5826 5825 5825 5824 5823 5823 5822 5821 5820 5820 5819 5818 5817 5816 5816 5815 5814 5813 5812 5811 5810
5825 5825 5826 5826 5826 5825 5826 5826 5826 5826 5825 5825 5826 5826 5827 5826 5826 5825 5825 5824 5824 5824 5823 5823 5822 5822 5821 5821 5820 5819 5818 5817 5816 5816 5815 5814 5813 5812 5811 5810 5809 5808 5807 5806
5822 5822 5823 5823 5822 5822 5823 5823 5822 5822 5822 5822 5823 5826 5824 5823 5822 5821 5821 5820 5820 5820 5820 5820 5819 5818 5818 5817 5816 5815 5814 5814 5813 5812 5811 5810 5809 5808 5807 5806 5805 5804 5803 5802
5818 5819 5819 5819 5819 5819 5819 5819 5819 5819 5819 5819 5819 5823 5820 5819 5818 5817 5817 5816 5816 5816 5816 5816 5815 5815 5814 5813 5812 5811 5810 5810 5809 5808 5807 5806 5805 5804 5803 5802 5801 5800 5799 5798
5814 5815 5815 5815 5817 5816 5815 5815 5815 5815 5815 5815 5815 5819 5816 5815 5814 5814 5813 5812 5812 5812 5812 5812 5812 5811 5810 5809 5808 5807 5806 5805 5804 5803 5802 5801 5800 5799 5798 5797 5796 5795 5794 5793
5809 5809 5811 5811 5811 5811 5811 5811 5811 5811 5811 5811 5812 5812 5812 5811 5810 5810 5809 5808 5808 5808 5808 5808 5807 5807 5806 5805 5804 5803 5802 5801 5799 5798 5797 5796 5795 5794 5793 5792 5791 5790 5789 5788
5803 5804 5804 5805 5806 5806 5806 5806 5806 5806 5806 5806 5807 5807 5807 5806 5806 5805 5805 5804 5804 5804 5804 5804 5803 5802 5801 5800 5799 5798 5797 5796 5794 5793 5792 5791 5790 5789 5788 5787 5786 5785 5784 5783
5797 5798 5799 5800 5800 5800 5800 5801 5801 5801 5801 5801 5801 5802 5802 5801 5801 5801 5800 5800 5800 5800 5800 5799 5799 5798 5797 5796 5795 5793 5792 5791 5789 5788 5787 5786 5785 5784 5783 5781 5781 5780 5779 5777
5792 5792 5793 5793 5794 5794 5795 5796 5796 5796 5796 5796 5796 5798 5796 5796 5796 5796 5796 5796 5796 5796 5795 5794 5794 5793 5792 5791 5789 5788 5787 5785 5784 5783 5782 5780 5779 5778 5777 5776 5775 5774 5773 5772
5785 5786 5786 5787 5788 5788 5792 5791 5791 5790 5790 5791 5791 5791 5791 5791 5790 5790 5790 5790 5790 5790 5790 5789 5788 5787 5786 5785 5784 5782 5781 5780 5778 5777 5776 5775 5774 5773 5772 5771 5769 5768 5767 5766
5778 5779 5779 5780 5780 5781 5784 5784 5784 5784 5784 5785 5785 5785 5785 5785 5784 5785 5785 5784 5784 5784 5783 5783 5782 5781 5780 5779 5777 5776 5775 5773 5772 5771 5770 5769 5768 5767 5766 5765 5763 5762 5761 5761
5770 5771 5772 5772 5773 5774 5778 5778 5777 5778 5778 5779 5778 5778 5778 5778 5779 5779 5778 5778 5777 5777 5777 5776 5775 5774 5773 5772 5771 5770 5768 5767 5766 5765 5764 5763 5762 5761 5760 5758 5757 5756 5755 5755
5762 5763 5764 5765 5765 5767 5770 5770 5771 5772 5773 5772 5772 5771 5771 5771 5771 5772 5771 5770 5770 5770 5769 5769 5768 5767 5766 5765 5763 5763 5761 5760 5759 5758 5757 5756 5755 5754 5753 5752 5751 5750 5749 5749
5754 5755 5756 5757 5758 5762 5763 5762 5764 5765 5764 5764 5764 5764 5764 5764 5763 5763 5763 5762 5762 5761 5761 5760 5760 5759 5758 5757 5756 5755 5754 5753 5752 5751 5750 5749 5748 5747 5746 5745 5744 5743 5743 5742
5746 5748 5748 5750 5752 5753 5753 5754 5755 5755 5756 5756 5756 5756 5756 5756 5756 5755 5755 5755 5754 5753 5753 5752 5752 5751 5750 5749 5748 5747 5746 5745 5744 5743 5742 5741 5740 5739 5738 5738 5737 5736 5735 5734
5737 5738 5740 5741 5742 5743 5744 5744 5746 5747 5747 5748 5748 5748 5748 5748 5748 5747 5747 5746 5746 5745 5744 5744 5743 5742 5741 5740 5739 5738 5738 5737 5736 5735 5734 5733 5732 5731 5730 5729 5729 5728 5727 5726
5729 5729 5730 5731 5733 5733 5734 5735 5736 5737 5737 5738 5738 5739 5739 5739 5738 5738 5738 5737 5737 5736 5735 5735 5734 5733 5732 5731 5730 5729 5728 5727 5727 5726 5725 5724 5723 5722 5721 5721 5720 5719 5718 5717
5720 5720 5720 5722 5723 5724 5725 5725 5726 5726 5727 5728 5728 5729 5728 5728 5728 5728 5728 5727 5727 5726 5726 5725 5724 5723 5722 5721 5721 5720 5718 5718 5717 5716 5715 5714 5713 5713 5712 5711 5710 5709 5708 5707